This is the latest recevied weather packets stored in our database for station/object KF6RAL-6. If no packets are shown the sender has not sent any weather packets the latest 10 day(s).
| Time | Temp. | Humidity | Pressure | Rain* | Wind** | Luminosity | Snow |
|---|---|---|---|---|---|---|---|
| 1777702856 | 11.11° C | 48% | 1018.4 hPa | 0 mm | - | - | - |
| 1777702435 | 11.11° C | 57% | 1018.3 hPa | 0 mm | - | - | - |
| 1777702014 | 11.11° C | 55% | 1018.3 hPa | 0 mm | - | - | - |
| 1777701593 | 11.67° C | 52% | 1018.1 hPa | 0 mm | - | - | - |
| 1777701172 | 12.22° C | 52% | 1018 hPa | 0 mm | - | - | - |
| 1777700751 | 12.22° C | 48% | 1018.1 hPa | 0 mm | - | - | - |
| 1777700330 | 12.78° C | 44% | 1018 hPa | 0 mm | - | - | - |
| 1777699909 | 12.78° C | 47% | 1018.2 hPa | 0 mm | - | - | - |
| 1777699488 | 13.33° C | 45% | 1017.9 hPa | 0 mm | - | - | - |
| 1777699067 | 13.33° C | 35% | 1017.9 hPa | 0 mm | - | - | - |
| 1777698646 | 12.78° C | 38% | 1018.1 hPa | 0 mm | - | - | - |
| 1777698225 | 12.22° C | 39% | 1018.2 hPa | 0 mm | - | - | - |
| 1777697804 | 12.22° C | 52% | 1018.1 hPa | 0 mm | - | - | - |
| 1777697383 | 13.33° C | 50% | 1017.7 hPa | 0 mm | - | - | - |
| 1777696962 | 13.89° C | 34% | 1018.1 hPa | 0 mm | - | - | - |
| 1777696541 | 13.89° C | 34% | 1018.1 hPa | 0 mm | - | - | - |
| 1777696120 | 14.44° C | 32% | 1017.8 hPa | 0 mm | - | - | - |
| 1777695699 | 14.44° C | 32% | 1017.8 hPa | 0 mm | - | - | - |
| 1777695278 | 15° C | 31% | 1017.8 hPa | 0 mm | - | - | - |
| 1777694857 | 15° C | 31% | 1017.7 hPa | 0 mm | - | - | - |
| 1777694436 | 15.56° C | 28% | 1018.3 hPa | 0 mm | - | - | - |
| 1777694015 | 15° C | 30% | 1017.7 hPa | 0 mm | - | - | - |
| 1777693594 | 15° C | 30% | 1017.7 hPa | 0 mm | - | - | - |
| 1777692753 | 15.56° C | 29% | 1017.5 hPa | 0 mm | - | - | - |
| 1777691910 | 15.56° C | 27% | 1017.4 hPa | 0 mm | - | - | - |
* Rain latest hour (hover to see other rain measurements)
** Current wind speed in m/s (hover to see current wind gust speed)